| time (UTC) | temp F | wind direction | speed MPH | gust MPH | rain 1hr in | rain 24hr in | rain mn in | humidity % | barometer mb |
| 20260504231018 | 55 | 0.0 | 1.0 | 0.00 | 0.15 | 0.00 | 89 | 1011.0 | |
| 20260504230018 | 55 | 0.0 | 1.0 | 0.00 | 0.15 | 0.00 | 89 | 1011.2 | |
| 20260504225028 | 55 | 0.0 | 1.0 | 0.00 | 0.15 | 0.00 | 89 | 1011.5 | |
| 20260504224019 | 55 | 0.0 | 0.0 | 0.00 | 0.15 | 0.00 | 89 | 1011.6 | |
| 20260504223018 | 56 | 0.0 | 0.0 | 0.00 | 0.15 | 0.00 | 89 | 1011.8 | |
| 20260504222016 | 56 | 0.0 | 0.0 | 0.00 | 0.15 | 0.00 | 89 | 1011.9 | |
| 20260504221017 | 56 | 0.0 | 1.0 | 0.00 | 0.15 | 0.00 | 89 | 1012.0 | |
| 20260504220016 | 56 | 0.0 | 0.0 | 0.00 | 0.15 | 0.12 | 89 | 1012.1 | |
| 20260504215017 | 56 | 0.0 | 1.0 | 0.00 | 0.15 | 0.12 | 89 | 1012.2 | |
| 20260504214017 | 56 | 0.0 | 1.0 | 0.00 | 0.15 | 0.12 | 89 | 1012.1 | |
| 20260504213017 | 56 | 0.0 | 1.0 | 0.00 | 0.15 | 0.12 | 89 | 1012.2 | |
| 20260504212017 | 56 | 0.0 | 1.0 | 0.00 | 0.15 | 0.12 | 89 | 1012.3 | |
| 20260504211017 | 56 | 0.0 | 1.0 | 0.00 | 0.15 | 0.12 | 89 | 1012.4 | |
| 20260504210017 | 56 | 0.0 | 0.0 | 0.00 | 0.15 | 0.12 | 89 | 1012.3 | |
| 20260504205019 | 56 | 0.0 | 0.0 | 0.00 | 0.15 | 0.12 | 89 | 1012.3 | |
| 20260504204017 | 56 | 0.0 | 0.0 | 0.00 | 0.15 | 0.12 | 89 | 1012.4 | |
| 20260504203017 | 56 | 0.0 | 1.0 | 0.00 | 0.15 | 0.12 | 89 | 1012.3 | |
| 20260504202017 | 56 | 0.0 | 1.0 | 0.00 | 0.15 | 0.12 | 89 | 1012.3 | |
| 20260504201017 | 56 | 0.0 | 1.0 | 0.00 | 0.15 | 0.12 | 89 | 1012.2 | |
| 20260504200017 | 56 | 0.0 | 0.0 | 0.00 | 0.15 | 0.12 | 88 | 1012.3 | |
| 20260504195017 | 57 | 0.0 | 0.0 | 0.00 | 0.15 | 0.12 | 89 | 1012.4 | |
| 20260504194017 | 57 | 0.0 | 0.0 | 0.00 | 0.15 | 0.12 | 88 | 1012.5 | |
| 20260504193017 | 57 | 0.0 | 0.0 | 0.00 | 0.15 | 0.12 | 88 | 1012.5 | |
| 20260504192027 | 57 | 0.0 | 0.0 | 0.00 | 0.15 | 0.12 | 88 | 1012.4 | |
| 20260504191017 | 57 | 0.0 | 0.0 | 0.00 | 0.15 | 0.12 | 88 | 1012.3 | |
| 20260504190139 | 58 | 0.0 | 0.0 | 0.00 | 0.17 | 0.15 | 88 | 1012.2 | |
| 20260504185017 | 58 | 0.0 | 0.0 | 0.00 | 0.22 | 0.12 | 88 | 1012.3 | |
| 20260504184017 | 58 | 0.0 | 0.0 | 0.00 | 0.23 | 0.12 | 88 | 1012.3 | |
| 20260504183027 | 58 | 0.0 | 0.0 | 0.00 | 0.23 | 0.12 | 88 | 1012.2 | |
| 20260504182017 | 59 | 0.0 | 0.0 | 0.00 | 0.23 | 0.12 | 88 | 1012.1 | |
| 20260504181017 | 59 | 0.0 | 0.0 | 0.00 | 0.23 | 0.12 | 88 | 1012.0 | |
| 20260504180017 | 59 | 0.0 | 0.0 | 0.00 | 0.23 | 0.12 | 88 | 1011.9 | |
| 20260504175017 | 59 | 0.0 | 0.0 | 0.00 | 0.23 | 0.12 | 88 | 1011.9 | |
| 20260504174016 | 60 | 0.0 | 0.0 | 0.00 | 0.23 | 0.12 | 87 | 1012.0 | |
| 20260504173028 | 60 | 0.0 | 0.0 | 0.00 | 0.23 | 0.12 | 87 | 1011.9 | |
| 20260504172028 | 60 | 0.0 | 0.0 | 0.01 | 0.23 | 0.12 | 87 | 1011.9 | |
| 20260504171017 | 60 | 0.0 | 0.0 | 0.01 | 0.23 | 0.12 | 87 | 1011.9 | |
| 20260504151016 | 60 | 0.0 | 1.0 | 0.01 | 0.20 | 0.09 | 88 | 1012.3 | |
| 20260504141026 | 61 | 0.0 | 1.0 | 0.00 | 0.19 | 0.09 | 88 | 1012.7 | |
| 20260504081017 | 57 | 0.0 | 0.0 | 0.00 | 0.11 | 0.00 | 89 | 1013.5 | |
| 20260504050016 | 53 | 0.0 | 0.0 | 0.00 | 0.13 | 0.00 | 89 | 1012.4 | |
| 20260504045017 | 54 | 0.0 | 0.0 | 0.00 | 0.14 | 0.00 | 89 | 1012.3 | |
| 20260504044017 | 54 | 0.0 | 0.0 | 0.00 | 0.15 | 0.00 | 89 | 1012.4 | |
| 20260504043032 | 54 | 0.0 | 0.0 | 0.00 | 0.17 | 0.00 | 89 | 1012.5 | |
| 20260504042016 | 54 | 0.0 | 0.0 | 0.00 | 0.19 | 0.00 | 89 | 1012.5 | |
| 20260504041017 | 54 | 0.0 | 0.0 | 0.00 | 0.21 | 0.00 | 89 | 1012.6 | |
| 20260504040017 | 54 | 0.0 | 0.0 | 0.00 | 0.23 | 0.00 | 89 | 1012.6 | |
| 20260504035016 | 54 | 0.0 | 0.0 | 0.00 | 0.24 | 0.00 | 89 | 1012.7 | |
| 20260504034016 | 54 | 0.0 | 0.0 | 0.00 | 0.25 | 0.00 | 89 | 1012.7 | |
| 20260504033016 | 54 | 0.0 | 0.0 | 0.00 | 0.26 | 0.00 | 89 | 1012.8 | |
| 20260504032016 | 54 | 0.0 | 0.0 | 0.00 | 0.27 | 0.00 | 89 | 1012.9 | |
| 20260504031016 | 54 | 0.0 | 0.0 | 0.00 | 0.30 | 0.00 | 89 | 1012.8 | |
| 20260504030016 | 54 | 0.0 | 0.0 | 0.00 | 0.31 | 0.00 | 89 | 1013.0 | |
| 20260504025016 | 54 | 0.0 | 0.0 | 0.00 | 0.32 | 0.00 | 89 | 1012.9 | |
| 20260504024016 | 54 | 0.0 | 0.0 | 0.00 | 0.32 | 0.00 | 89 | 1012.9 | |
| 20260504023016 | 54 | 0.0 | 0.0 | 0.00 | 0.33 | 0.00 | 89 | 1012.8 | |
| 20260504022016 | 54 | 0.0 | 0.0 | 0.00 | 0.33 | 0.00 | 89 | 1012.9 | |
| 20260504021018 | 54 | 0.0 | 0.0 | 0.00 | 0.33 | 0.00 | 89 | 1012.7 | |
| 20260504020018 | 54 | 0.0 | 0.0 | 0.00 | 0.33 | 0.00 | 89 | 1012.9 | |
| 20260504015018 | 54 | 0.0 | 0.0 | 0.00 | 0.33 | 0.00 | 89 | 1012.9 | |
| 20260504014018 | 54 | 0.0 | 0.0 | 0.00 | 0.33 | 0.00 | 89 | 1012.8 | |
| 20260504013019 | 54 | 0.0 | 0.0 | 0.00 | 0.33 | 0.00 | 89 | 1012.9 | |
| 20260504012018 | 54 | 0.0 | 0.0 | 0.00 | 0.33 | 0.00 | 89 | 1012.8 | |
| 20260504011018 | 54 | 0.0 | 0.0 | 0.00 | 0.33 | 0.00 | 89 | 1012.8 | |
| 20260504010122 | 54 | 0.0 | 0.0 | 0.00 | 0.33 | 0.00 | 89 | 1012.6 | |
| 20260504005518 | 54 | 0.0 | 0.0 | 0.00 | 0.33 | 0.00 | 89 | 1012.8 | |
| 20260504004528 | 54 | 0.0 | 0.0 | 0.00 | 0.33 | 0.00 | 89 | 1012.8 | |
| 20260504003529 | 54 | 0.0 | 0.0 | 0.00 | 0.33 | 0.00 | 89 | 1012.8 | |
| 20260504002518 | 54 | 0.0 | 0.0 | 0.00 | 0.33 | 0.00 | 89 | 1012.9 | |
| 20260504001534 | 54 | 0.0 | 0.0 | 0.00 | 0.33 | 0.00 | 89 | 1012.9 | |
| 20260504000518 | 53 | 0.0 | 0.0 | 0.00 | 0.33 | 0.00 | 89 | 1012.9 | |
| 20260503235518 | 53 | 0.0 | 0.0 | 0.00 | 0.33 | 0.00 | 89 | 1013.0 | |
| 20260503234518 | 53 | 0.0 | 0.0 | 0.00 | 0.33 | 0.00 | 89 | 1013.1 | |
| 20260503233518 | 53 | 0.0 | 0.0 | 0.00 | 0.33 | 0.00 | 89 | 1013.0 | |
| 20260503232518 | 53 | 0.0 | 0.0 | 0.00 | 0.33 | 0.00 | 89 | 1013.1 |